Accueil
METAR-TAF:

METAR-TAF

Aéroports :

Ontario Municipal Airport

Ontario, Oregon, États-Unis

latitude: 44-01-10N, longitude: 117-00-35W, altitude: 667 m

Observation

Le bulletin a été fait il y a 47 minutes, à 12:53 UTC
Vent 3 kt de ouest/nord-ouest
Température 8°C
Humidité 76%
Pression 1015 hPa
Visibilité: 16.1 km
Ciel clair

METAR: KONO 231253Z AUTO 29003KT 10SM CLR 08/04 A2998 RMK AO2 SLP152 T00780039

Heure: 07:40 (13:40 UTC)


TAF: absent

Observations et prévisions météorologiques de plus de 4000 aéroports (messages METAR et TAF).

Les stations disponibles sont représentées par des disques jaunes et rouges sur la carte.

Passer la souris dessus pour voir le nom de la station.

Cliquer dessus pour voir les observations et prévisions météorologiques.

Pour changer de carte: cliquez sur les boutons verts avec une croix noire pour zoomer, sur le bouton vert avec un tiret pour effectuer un zoom arrière, ou sur les flèches vertes pour les cartes adjacentes.


METAR-TAF: